| time (UTC) | temp C | wind direction | speed KPH | gust KPH | rain 1hr cm | rain 24hr cm | rain mn cm | humidity % | barometer mb |
| 20260507010543 | 7 | 67 | 0.0 | 4.8 | 0.00 | 0.69 | 0.69 | 89 | 1007.8 |
| 20260507010055 | 8 | 128 | 1.6 | 3.2 | 0.00 | 0.66 | 0.66 | 89 | 1006.8 |
| 20260507010041 | 7 | 85 | 3.2 | 4.8 | 0.00 | 0.69 | 0.69 | 89 | 1007.6 |
| 20260507005538 | 8 | 71 | 3.2 | 4.8 | 0.00 | 0.69 | 0.69 | 90 | 1008.0 |
| 20260507005034 | 8 | 48 | 3.2 | 3.2 | 0.00 | 0.69 | 0.69 | 90 | 1007.7 |
| 20260507004556 | 8 | 108 | 0.0 | 1.6 | 0.00 | 0.66 | 0.66 | 89 | 1006.5 |
| 20260507004532 | 8 | 66 | 3.2 | 4.8 | 0.00 | 0.69 | 0.69 | 90 | 1007.6 |
| 20260507004029 | 8 | 54 | 3.2 | 3.2 | 0.00 | 0.69 | 0.69 | 89 | 1007.6 |
| 20260507003524 | 8 | 57 | 3.2 | 4.8 | 0.00 | 0.69 | 0.69 | 89 | 1007.5 |
| 20260507003056 | 8 | 108 | 0.0 | 3.2 | 0.00 | 0.66 | 0.66 | 88 | 1006.2 |
| 20260507003020 | 8 | 83 | 3.2 | 4.8 | 0.00 | 0.69 | 0.69 | 89 | 1007.0 |
| 20260507002516 | 8 | 47 | 3.2 | 6.4 | 0.00 | 0.69 | 0.69 | 89 | 1007.1 |
| 20260507002012 | 8 | 73 | 3.2 | 3.2 | 0.00 | 0.69 | 0.69 | 89 | 1006.9 |
| 20260507001556 | 8 | 337 | 0.0 | 1.6 | 0.00 | 0.66 | 0.66 | 88 | 1005.8 |
| 20260507001509 | 8 | 72 | 3.2 | 4.8 | 0.00 | 0.69 | 0.69 | 88 | 1006.9 |
| 20260507001007 | 8 | 38 | 3.2 | 4.8 | 0.00 | 0.69 | 0.69 | 89 | 1006.7 |
| 20260507000502 | 8 | 42 | 3.2 | 6.4 | 0.00 | 0.69 | 0.69 | 89 | 1006.8 |
| 20260506235958 | 8 | 62 | 3.2 | 4.8 | 0.00 | 0.69 | 0.69 | 89 | 1006.9 |
| 20260506235456 | 8 | 77 | 3.2 | 4.8 | 0.00 | 0.69 | 0.69 | 89 | 1006.9 |
| 20260506234951 | 8 | 52 | 4.8 | 4.8 | 0.00 | 0.69 | 0.69 | 89 | 1006.7 |
| 20260506234555 | 8 | 89 | 0.0 | 3.2 | 0.00 | 0.66 | 0.66 | 90 | 1005.7 |
| 20260506234449 | 8 | 93 | 3.2 | 4.8 | 0.00 | 0.69 | 0.69 | 90 | 1006.8 |
| 20260506233946 | 8 | 68 | 4.8 | 4.8 | 0.00 | 0.69 | 0.69 | 90 | 1006.6 |
| 20260506233442 | 8 | 41 | 3.2 | 6.4 | 0.00 | 0.69 | 0.69 | 89 | 1006.4 |
| 20260506233056 | 8 | 80 | 1.6 | 4.8 | 0.00 | 0.66 | 0.66 | 89 | 1005.4 |
| 20260506232939 | 8 | 56 | 3.2 | 4.8 | 0.00 | 0.69 | 0.69 | 89 | 1006.4 |
| 20260506232436 | 8 | 64 | 4.8 | 6.4 | 0.00 | 0.69 | 0.69 | 89 | 1006.4 |
| 20260506231931 | 8 | 86 | 4.8 | 4.8 | 0.00 | 0.69 | 0.69 | 90 | 1006.2 |
| 20260506231556 | 8 | 83 | 0.0 | 4.8 | 0.00 | 0.66 | 0.66 | 90 | 1005.4 |
| 20260506231429 | 8 | 39 | 3.2 | 4.8 | 0.00 | 0.69 | 0.69 | 90 | 1006.4 |
| 20260506230926 | 8 | 64 | 4.8 | 4.8 | 0.00 | 0.69 | 0.69 | 91 | 1006.4 |
| 20260506230422 | 8 | 48 | 4.8 | 4.8 | 0.00 | 0.69 | 0.69 | 91 | 1006.3 |
| 20260506225919 | 8 | 84 | 3.2 | 4.8 | 0.00 | 0.69 | 0.69 | 91 | 1006.1 |
| 20260506225416 | 8 | 82 | 3.2 | 6.4 | 0.00 | 0.69 | 0.69 | 91 | 1006.2 |
| 20260506224913 | 8 | 55 | 3.2 | 4.8 | 0.00 | 0.69 | 0.69 | 91 | 1006.2 |
| 20260506224411 | 8 | 56 | 3.2 | 4.8 | 0.00 | 0.69 | 0.69 | 91 | 1006.1 |
| 20260506223907 | 8 | 75 | 3.2 | 4.8 | 0.00 | 0.69 | 0.69 | 91 | 1006.1 |
| 20260506223402 | 8 | 64 | 3.2 | 4.8 | 0.00 | 0.69 | 0.69 | 91 | 1006.0 |
| 20260506223056 | 8 | 137 | 1.6 | 4.8 | 0.00 | 0.66 | 0.66 | 91 | 1004.9 |
| 20260506222859 | 8 | 28 | 1.6 | 6.4 | 0.00 | 0.69 | 0.69 | 91 | 1006.0 |
| 20260506222355 | 8 | 54 | 3.2 | 3.2 | 0.05 | 0.69 | 0.69 | 92 | 1005.8 |
| 20260506221853 | 8 | 63 | 3.2 | 8.0 | 0.05 | 0.69 | 0.69 | 92 | 1005.7 |
| 20260506221555 | 8 | 123 | 1.6 | 4.8 | 0.00 | 0.66 | 0.66 | 92 | 1004.6 |
| 20260506221350 | 8 | 59 | 3.2 | 6.4 | 0.00 | 0.66 | 0.66 | 92 | 1005.7 |
| 20260506220848 | 8 | 46 | 6.4 | 6.4 | 0.00 | 0.66 | 0.66 | 92 | 1005.5 |
| 20260506220343 | 8 | 88 | 1.6 | 4.8 | 0.00 | 0.66 | 0.66 | 93 | 1005.5 |
| 20260506220055 | 8 | 114 | 0.0 | 4.8 | 0.03 | 0.66 | 0.66 | 93 | 1004.3 |
| 20260506215840 | 8 | 57 | 1.6 | 3.2 | 0.00 | 0.66 | 0.66 | 93 | 1005.3 |
| 20260506215336 | 8 | 58 | 3.2 | 4.8 | 0.00 | 0.66 | 0.66 | 93 | 1005.2 |
| 20260506214832 | 8 | 67 | 4.8 | 6.4 | 0.00 | 0.66 | 0.66 | 93 | 1005.1 |
| 20260506214329 | 8 | 42 | 3.2 | 4.8 | 0.00 | 0.66 | 0.66 | 93 | 1005.0 |
| 20260506213827 | 8 | 323 | 0.0 | 3.2 | 0.00 | 0.66 | 0.66 | 93 | 1005.2 |
| 20260506213324 | 8 | 1 | 0.0 | 4.8 | 0.00 | 0.66 | 0.66 | 93 | 1004.8 |
| 20260506213056 | 9 | 247 | 3.2 | 4.8 | 0.05 | 0.66 | 0.66 | 93 | 1003.9 |
| 20260506212822 | 8 | 44 | 0.0 | 4.8 | 0.00 | 0.66 | 0.66 | 93 | 1005.0 |
| 20260506212317 | 9 | 102 | 1.6 | 4.8 | 0.05 | 0.66 | 0.66 | 94 | 1004.9 |
| 20260506211812 | 9 | 58 | 4.8 | 8.0 | 0.05 | 0.66 | 0.66 | 94 | 1004.7 |
| 20260506211556 | 9 | 252 | 0.0 | 4.8 | 0.10 | 0.66 | 0.66 | 93 | 1003.5 |
| 20260506211309 | 9 | 75 | 3.2 | 4.8 | 0.00 | 0.66 | 0.66 | 93 | 1004.5 |
| 20260506210806 | 9 | 269 | 0.0 | 4.8 | 0.05 | 0.66 | 0.66 | 94 | 1004.2 |
| 20260506210303 | 9 | 69 | 0.0 | 3.2 | 0.05 | 0.66 | 0.66 | 93 | 1004.2 |
| 20260506205800 | 9 | 254 | 4.8 | 6.4 | 0.05 | 0.66 | 0.66 | 93 | 1004.3 |
| 20260506205256 | 9 | 2 | 0.0 | 4.8 | 0.05 | 0.66 | 0.66 | 93 | 1004.1 |
| 20260506204752 | 9 | 74 | 1.6 | 3.2 | 0.05 | 0.64 | 0.64 | 93 | 1003.9 |
| 20260506204556 | 10 | 262 | 1.6 | 4.8 | 0.15 | 0.64 | 0.64 | 92 | 1002.9 |
| 20260506204250 | 10 | 84 | 0.0 | 4.8 | 0.13 | 0.64 | 0.64 | 93 | 1004.0 |
| 20260506203747 | 10 | 19 | 0.0 | 4.8 | 0.05 | 0.61 | 0.61 | 92 | 1003.8 |
| 20260506203244 | 10 | 98 | 1.6 | 6.4 | 0.18 | 0.61 | 0.61 | 92 | 1003.3 |
| 20260506203055 | 10 | 220 | 1.6 | 4.8 | 0.13 | 0.61 | 0.61 | 91 | 1002.5 |
| 20260506202742 | 10 | 265 | 0.0 | 3.2 | 0.18 | 0.61 | 0.61 | 92 | 1003.5 |
| 20260506202238 | 10 | 310 | 1.6 | 3.2 | 0.18 | 0.58 | 0.58 | 92 | 1003.1 |
| 20260506201735 | 10 | 93 | 0.0 | 3.2 | 0.05 | 0.56 | 0.56 | 91 | 1003.4 |
| 20260506201556 | 11 | 223 | 1.6 | 4.8 | 0.08 | 0.56 | 0.56 | 89 | 1002.2 |
| 20260506201232 | 10 | 33 | 3.2 | 4.8 | 0.05 | 0.56 | 0.56 | 90 | 1003.2 |
| 20260506200729 | 11 | 88 | 4.8 | 4.8 | 0.05 | 0.56 | 0.56 | 90 | 1003.3 |
| 20260506200226 | 11 | 291 | 0.0 | 4.8 | 0.18 | 0.56 | 0.56 | 90 | 1003.2 |
| 20260506200055 | 12 | 192 | 1.6 | 4.8 | 0.05 | 0.53 | 0.53 | 86 | 1001.8 |
| 20260506195722 | 11 | 29 | 1.6 | 6.4 | 0.23 | 0.53 | 0.53 | 89 | 1003.0 |
| 20260506195218 | 12 | 132 | 0.0 | 4.8 | 0.13 | 0.51 | 0.51 | 86 | 1003.0 |
| 20260506194716 | 13 | 244 | 3.2 | 9.7 | 0.00 | 0.51 | 0.51 | 82 | 1002.8 |
| 20260506194212 | 15 | 256 | 3.2 | 4.8 | 0.00 | 0.51 | 0.51 | 82 | 1002.3 |
| 20260506193710 | 15 | 230 | 4.8 | 11.3 | 0.00 | 0.51 | 0.51 | 83 | 1002.1 |
| 20260506193207 | 15 | 221 | 8.0 | 12.9 | 0.00 | 0.51 | 0.51 | 83 | 1002.0 |
| 20260506193056 | 15 | 234 | 1.6 | 4.8 | 0.00 | 0.48 | 0.48 | 85 | 1000.6 |
| 20260506192703 | 15 | 233 | 3.2 | 6.4 | 0.00 | 0.51 | 0.51 | 84 | 1002.0 |
| 20260506192200 | 15 | 204 | 0.0 | 3.2 | 0.00 | 0.51 | 0.51 | 84 | 1002.1 |
| 20260506191657 | 15 | 184 | 0.0 | 3.2 | 0.00 | 0.51 | 0.51 | 84 | 1002.0 |
| 20260506191556 | 15 | 224 | 1.6 | 3.2 | 0.00 | 0.48 | 0.48 | 85 | 1000.6 |
| 20260506191153 | 15 | 72 | 1.6 | 3.2 | 0.00 | 0.51 | 0.51 | 85 | 1002.1 |
| 20260506190650 | 15 | 63 | 3.2 | 3.2 | 0.00 | 0.51 | 0.51 | 85 | 1002.2 |
| 20260506190147 | 15 | 230 | 3.2 | 3.2 | 0.00 | 0.51 | 0.51 | 84 | 1002.1 |
| 20260506190057 | 15 | 237 | 1.6 | 4.8 | 0.00 | 0.48 | 0.48 | 86 | 1000.7 |
| 20260506185644 | 15 | 256 | 0.0 | 4.8 | 0.00 | 0.51 | 0.51 | 84 | 1002.1 |
| 20260506185140 | 15 | 41 | 1.6 | 6.4 | 0.00 | 0.51 | 0.51 | 84 | 1002.0 |
| 20260506184638 | 15 | 191 | 1.6 | 6.4 | 0.00 | 0.51 | 0.51 | 84 | 1002.1 |
| 20260506184556 | 15 | 224 | 3.2 | 4.8 | 0.00 | 0.48 | 0.48 | 85 | 1000.9 |
| 20260506184135 | 15 | 131 | 0.0 | 8.0 | 0.00 | 0.51 | 0.51 | 83 | 1002.2 |
| 20260506183632 | 15 | 126 | 0.0 | 1.6 | 0.00 | 0.51 | 0.51 | 85 | 1002.3 |
| 20260506183127 | 15 | 78 | 3.2 | 4.8 | 0.00 | 0.51 | 0.51 | 85 | 1002.1 |
| 20260506183057 | 15 | 172 | 1.6 | 4.8 | 0.00 | 0.48 | 0.48 | 87 | 1000.9 |
| 20260506182625 | 15 | 43 | 0.0 | 4.8 | 0.00 | 0.51 | 0.51 | 85 | 1002.4 |
| 20260506182122 | 15 | 214 | 3.2 | 8.0 | 0.00 | 0.51 | 0.51 | 85 | 1002.4 |
| 20260506181620 | 15 | 134 | 0.0 | 3.2 | 0.00 | 0.51 | 0.51 | 86 | 1002.3 |
| 20260506181117 | 15 | 213 | 4.8 | 14.5 | 0.00 | 0.51 | 0.51 | 85 | 1002.5 |
| 20260506180614 | 15 | 82 | 0.0 | 3.2 | 0.00 | 0.51 | 0.51 | 86 | 1002.3 |
| 20260506180110 | 15 | 229 | 6.4 | 6.4 | 0.00 | 0.51 | 0.51 | 86 | 1002.8 |
| 20260506175606 | 15 | 243 | 1.6 | 3.2 | 0.00 | 0.51 | 0.51 | 87 | 1002.4 |
| 20260506175102 | 15 | 218 | 3.2 | 8.0 | 0.00 | 0.51 | 0.51 | 86 | 1002.4 |
| 20260506174602 | 15 | 107 | 1.6 | 3.2 | 0.00 | 0.51 | 0.51 | 88 | 1002.4 |
| 20260506174555 | 15 | 242 | 0.0 | 4.8 | 0.00 | 0.48 | 0.48 | 88 | 1001.1 |
| 20260506174057 | 15 | 206 | 3.2 | 6.4 | 0.00 | 0.51 | 0.51 | 87 | 1002.5 |
| 20260506173555 | 15 | 101 | 3.2 | 6.4 | 0.00 | 0.51 | 0.51 | 87 | 1002.2 |
| 20260506173057 | 15 | 44 | 0.0 | 3.2 | 0.00 | 0.48 | 0.48 | 89 | 1001.0 |
| 20260506173052 | 15 | 72 | 3.2 | 3.2 | 0.00 | 0.51 | 0.51 | 88 | 1002.6 |
| 20260506172549 | 15 | 71 | 3.2 | 3.2 | 0.00 | 0.51 | 0.51 | 89 | 1002.3 |
| 20260506172045 | 15 | 200 | 3.2 | 3.2 | 0.00 | 0.51 | 0.51 | 90 | 1002.4 |
| 20260506171556 | 14 | 115 | 1.6 | 4.8 | 0.00 | 0.48 | 0.48 | 91 | 1001.1 |
| 20260506171543 | 15 | 85 | 1.6 | 6.4 | 0.00 | 0.51 | 0.51 | 90 | 1002.5 |
| 20260506171041 | 14 | 222 | 1.6 | 4.8 | 0.00 | 0.51 | 0.51 | 89 | 1002.4 |
| 20260506170538 | 14 | 279 | 0.0 | 4.8 | 0.00 | 0.51 | 0.51 | 90 | 1002.4 |
| 20260506170055 | 14 | 242 | 3.2 | 9.7 | 0.00 | 0.48 | 0.48 | 91 | 1001.1 |
| 20260506170035 | 14 | 56 | 0.0 | 4.8 | 0.05 | 0.51 | 0.51 | 90 | 1002.3 |
| 20260506165533 | 14 | 214 | 4.8 | 12.9 | 0.00 | 0.48 | 0.48 | 90 | 1002.5 |
| 20260506165029 | 14 | 217 | 6.4 | 12.9 | 0.00 | 0.48 | 0.48 | 90 | 1002.7 |
| 20260506164556 | 14 | 228 | 3.2 | 16.1 | 0.00 | 0.48 | 0.48 | 89 | 1001.3 |
| 20260506164526 | 14 | 228 | 3.2 | 4.8 | 0.00 | 0.48 | 0.48 | 89 | 1002.5 |
| 20260506164023 | 14 | 240 | 3.2 | 4.8 | 0.00 | 0.48 | 0.48 | 89 | 1002.9 |
| 20260506163520 | 14 | 287 | 3.2 | 4.8 | 0.00 | 0.48 | 0.48 | 88 | 1002.8 |
| 20260506163015 | 14 | 109 | 0.0 | 3.2 | 0.00 | 0.48 | 0.48 | 87 | 1002.8 |
| 20260506162512 | 14 | 129 | 0.0 | 11.3 | 0.00 | 0.48 | 0.48 | 86 | 1002.9 |
| 20260506162009 | 14 | 253 | 3.2 | 6.4 | 0.00 | 0.48 | 0.48 | 87 | 1002.8 |
| 20260506161507 | 14 | 44 | 0.0 | 3.2 | 0.00 | 0.48 | 0.48 | 90 | 1002.6 |
| 20260506161004 | 14 | 66 | 4.8 | 9.7 | 0.00 | 0.48 | 0.48 | 89 | 1002.9 |
| 20260506160501 | 14 | 80 | 1.6 | 4.8 | 0.00 | 0.48 | 0.48 | 88 | 1003.0 |
| 20260506160057 | 14 | 206 | 3.2 | 4.8 | 0.08 | 0.48 | 0.48 | 88 | 1001.6 |
| 20260506155958 | 14 | 84 | 1.6 | 6.4 | 0.00 | 0.48 | 0.48 | 87 | 1002.8 |
| 20260506155457 | 14 | 66 | 3.2 | 6.4 | 0.05 | 0.48 | 0.48 | 88 | 1002.6 |
| 20260506154556 | 14 | 137 | 1.6 | 8.0 | 0.08 | 0.48 | 0.48 | 88 | 1001.4 |
| 20260506153628 | 14 | 222 | 3.2 | 6.4 | 0.05 | 0.46 | 0.46 | 88 | 1002.7 |
| 20260506153125 | 14 | 261 | 4.8 | 9.7 | 0.13 | 0.46 | 0.46 | 88 | 1002.9 |
| 20260506153056 | 14 | 220 | 3.2 | 11.3 | 0.08 | 0.46 | 0.46 | 89 | 1001.6 |
| 20260506152622 | 14 | 252 | 3.2 | 8.0 | 0.18 | 0.46 | 0.46 | 88 | 1002.8 |
| 20260506152120 | 13 | 248 | 3.2 | 12.9 | 0.13 | 0.43 | 0.43 | 89 | 1002.9 |
| 20260506151618 | 14 | 63 | 4.8 | 6.4 | 0.13 | 0.43 | 0.43 | 88 | 1002.9 |
| 20260506151115 | 14 | 60 | 0.0 | 3.2 | 0.05 | 0.43 | 0.43 | 89 | 1002.6 |
| 20260506150612 | 14 | 237 | 1.6 | 3.2 | 0.05 | 0.41 | 0.41 | 89 | 1002.6 |
| 20260506150109 | 14 | 240 | 8.0 | 14.5 | 0.13 | 0.41 | 0.41 | 88 | 1002.8 |
| 20260506150055 | 13 | 230 | 3.2 | 11.3 | 0.03 | 0.41 | 0.41 | 89 | 1001.4 |
| 20260506145605 | 14 | 249 | 6.4 | 12.9 | 0.05 | 0.41 | 0.41 | 88 | 1002.9 |
| 20260506145103 | 13 | 138 | 6.4 | 8.0 | 0.00 | 0.38 | 0.38 | 89 | 1003.0 |
| 20260506144559 | 13 | 89 | 0.0 | 3.2 | 0.00 | 0.38 | 0.38 | 89 | 1002.8 |
| 20260506144555 | 13 | 265 | 1.6 | 9.7 | 0.08 | 0.41 | 0.41 | 90 | 1001.5 |
| 20260506144056 | 13 | 217 | 6.4 | 8.0 | 0.00 | 0.38 | 0.38 | 89 | 1002.6 |
| 20260506143554 | 13 | 236 | 9.7 | 11.3 | 0.00 | 0.38 | 0.38 | 90 | 1002.6 |
| 20260506143056 | 13 | 247 | 4.8 | 8.0 | 0.10 | 0.38 | 0.38 | 92 | 1001.5 |
| 20260506143052 | 13 | 93 | 0.0 | 12.9 | 0.00 | 0.38 | 0.38 | 91 | 1002.9 |
| 20260506142550 | 13 | 124 | 0.0 | 4.8 | 0.05 | 0.38 | 0.38 | 92 | 1002.9 |
| 20260506142048 | 13 | 70 | 0.0 | 4.8 | 0.05 | 0.38 | 0.38 | 92 | 1002.9 |
| 20260506141556 | 13 | 178 | 1.6 | 4.8 | 0.18 | 0.38 | 0.38 | 92 | 1001.4 |
| 20260506141545 | 13 | 75 | 0.0 | 6.4 | 0.00 | 0.38 | 0.38 | 91 | 1002.6 |
| 20260506141043 | 13 | 62 | 4.8 | 6.4 | 0.05 | 0.38 | 0.38 | 91 | 1002.8 |
| 20260506140541 | 13 | 47 | 1.6 | 3.2 | 0.13 | 0.38 | 0.38 | 90 | 1002.7 |
| 20260506140055 | 13 | 240 | 1.6 | 9.7 | 0.23 | 0.38 | 0.38 | 91 | 1001.1 |
| 20260506140038 | 13 | 142 | 0.0 | 3.2 | 0.13 | 0.38 | 0.38 | 91 | 1002.7 |
| 20260506135534 | 13 | 41 | 3.2 | 4.8 | 0.23 | 0.36 | 0.36 | 91 | 1002.8 |
| 20260506135031 | 13 | 80 | 3.2 | 4.8 | 0.23 | 0.33 | 0.33 | 91 | 1002.6 |
| 20260506134554 | 13 | 322 | 0.0 | 3.2 | 0.20 | 0.33 | 0.33 | 91 | 1001.6 |
| 20260506134527 | 13 | 41 | 3.2 | 4.8 | 0.23 | 0.33 | 0.33 | 90 | 1003.0 |
| 20260506134023 | 12 | 77 | 0.0 | 4.8 | 0.18 | 0.30 | 0.30 | 89 | 1003.1 |
| 20260506133521 | 12 | 97 | 1.6 | 3.2 | 0.18 | 0.28 | 0.28 | 90 | 1003.2 |
| 20260506133056 | 12 | 106 | 1.6 | 8.0 | 0.18 | 0.28 | 0.28 | 90 | 1001.8 |
| 20260506133017 | 12 | 96 | 3.2 | 4.8 | 0.23 | 0.28 | 0.28 | 90 | 1003.3 |
| 20260506132514 | 13 | 51 | 4.8 | 6.4 | 0.18 | 0.25 | 0.25 | 89 | 1003.6 |
| 20260506132012 | 12 | 279 | 0.0 | 8.0 | 0.18 | 0.23 | 0.23 | 89 | 1003.6 |
| 20260506131509 | 12 | 56 | 3.2 | 12.9 | 0.23 | 0.23 | 0.23 | 91 | 1003.6 |
| 20260506131005 | 12 | 49 | 3.2 | 6.4 | 0.18 | 0.20 | 0.20 | 94 | 1003.7 |
| 20260506130502 | 12 | 32 | 4.8 | 6.4 | 0.18 | 0.18 | 0.18 | 94 | 1003.6 |
| 20260506130055 | 12 | 226 | 0.0 | 3.2 | 0.08 | 0.15 | 0.15 | 93 | 1002.3 |
| 20260506125959 | 12 | 72 | 3.2 | 4.8 | 0.18 | 0.15 | 0.15 | 94 | 1003.7 |
| 20260506125458 | 12 | 45 | 3.2 | 4.8 | 0.18 | 0.15 | 0.15 | 94 | 1003.9 |
| 20260506124955 | 12 | 70 | 3.2 | 6.4 | 0.13 | 0.13 | 0.13 | 94 | 1003.9 |
| 20260506124555 | 12 | 213 | 1.6 | 3.2 | 0.08 | 0.13 | 0.13 | 93 | 1002.5 |
| 20260506124453 | 12 | 257 | 3.2 | 4.8 | 0.13 | 0.13 | 0.13 | 94 | 1004.0 |
| 20260506123951 | 12 | 63 | 3.2 | 3.2 | 0.05 | 0.10 | 0.10 | 93 | 1004.0 |
| 20260506123448 | 12 | 47 | 3.2 | 4.8 | 0.05 | 0.10 | 0.10 | 93 | 1003.8 |
| 20260506123056 | 12 | 195 | 0.0 | 1.6 | 0.05 | 0.10 | 0.10 | 92 | 1002.0 |
| 20260506122946 | 12 | 37 | 0.0 | 3.2 | 0.05 | 0.10 | 0.10 | 93 | 1003.5 |
| 20260506122443 | 12 | 72 | 0.0 | 3.2 | 0.05 | 0.10 | 0.10 | 92 | 1003.4 |
| 20260506121941 | 12 | 47 | 1.6 | 4.8 | 0.00 | 0.08 | 0.08 | 92 | 1003.2 |
| 20260506121437 | 12 | 52 | 0.0 | 4.8 | 0.05 | 0.08 | 0.08 | 92 | 1003.2 |
| 20260506120934 | 12 | 60 | 3.2 | 4.8 | 0.05 | 0.08 | 0.08 | 92 | 1003.3 |
| 20260506120432 | 12 | 71 | 3.2 | 3.2 | 0.00 | 0.08 | 0.08 | 92 | 1003.4 |
| 20260506120055 | 12 | 195 | 0.0 | 1.6 | 0.05 | 0.08 | 0.08 | 91 | 1001.9 |
| 20260506115929 | 12 | 49 | 3.2 | 4.8 | 0.00 | 0.08 | 0.08 | 92 | 1003.4 |
| 20260506115427 | 12 | 48 | 3.2 | 4.8 | 0.05 | 0.08 | 0.08 | 92 | 1003.4 |
| 20260506114925 | 12 | 42 | 3.2 | 4.8 | 0.05 | 0.08 | 0.08 | 92 | 1003.4 |
| 20260506114556 | 12 | 195 | 0.0 | 1.6 | 0.05 | 0.05 | 0.05 | 90 | 1001.9 |
| 20260506114422 | 12 | 72 | 3.2 | 4.8 | 0.00 | 0.05 | 0.05 | 91 | 1003.4 |
| 20260506113921 | 12 | 70 | 3.2 | 4.8 | 0.00 | 0.05 | 0.05 | 91 | 1003.4 |
| 20260506113418 | 12 | 81 | 3.2 | 4.8 | 0.05 | 0.05 | 0.05 | 91 | 1003.4 |
| 20260506113057 | 13 | 195 | 0.0 | 0.0 | 0.05 | 0.05 | 0.05 | 89 | 1001.9 |
| 20260506112914 | 12 | 60 | 1.6 | 3.2 | 0.05 | 0.05 | 0.05 | 90 | 1003.6 |
| 20260506112412 | 12 | 100 | 1.6 | 3.2 | 0.13 | 0.05 | 0.05 | 90 | 1003.4 |
| 20260506111909 | 12 | 59 | 3.2 | 3.2 | 0.13 | 0.05 | 0.05 | 89 | 1003.5 |
| 20260506111556 | 13 | 195 | 0.0 | 1.6 | 0.03 | 0.03 | 0.03 | 88 | 1001.9 |
| 20260506111407 | 12 | 67 | 3.2 | 3.2 | 0.00 | 0.03 | 0.03 | 89 | 1003.5 |
| 20260506110904 | 12 | 51 | 3.2 | 3.2 | 0.05 | 0.03 | 0.03 | 88 | 1003.6 |
| 20260506110402 | 13 | 41 | 3.2 | 4.8 | 0.13 | 0.03 | 0.03 | 86 | 1003.4 |
| 20260506110055 | 13 | 195 | 0.0 | 1.6 | 0.03 | 0.03 | 0.03 | 85 | 1001.8 |
| 20260506105858 | 13 | 60 | 1.6 | 3.2 | 0.13 | 0.03 | 0.03 | 85 | 1003.3 |
| 20260506105355 | 13 | 50 | 0.0 | 3.2 | 0.05 | 0.00 | 0.00 | 83 | 1003.3 |
| 20260506104852 | 13 | 56 | 1.6 | 3.2 | 0.00 | 0.00 | 0.00 | 83 | 1003.3 |
| 20260506104350 | 13 | 53 | 3.2 | 3.2 | 0.00 | 0.00 | 0.00 | 82 | 1003.3 |
| 20260506103848 | 12 | 64 | 1.6 | 3.2 | 0.00 | 0.00 | 0.00 | 83 | 1003.3 |
| 20260506103345 | 12 | 58 | 3.2 | 3.2 | 0.00 | 0.00 | 0.00 | 84 | 1003.1 |
| 20260506103056 | 13 | 195 | 0.0 | 1.6 | 0.00 | 0.00 | 0.00 | 84 | 1001.4 |
| 20260506102842 | 12 | 66 | 0.0 | 1.6 | 0.00 | 0.00 | 0.00 | 84 | 1003.2 |
| 20260506102340 | 12 | 65 | 0.0 | 3.2 | 0.00 | 0.00 | 0.00 | 84 | 1002.9 |
| 20260506101837 | 12 | 40 | 0.0 | 3.2 | 0.00 | 0.00 | 0.00 | 85 | 1002.8 |
| 20260506101555 | 13 | 195 | 0.0 | 3.2 | 0.00 | 0.00 | 0.00 | 84 | 1001.3 |
| 20260506101333 | 12 | 68 | 1.6 | 3.2 | 0.00 | 0.00 | 0.00 | 84 | 1003.0 |
| 20260506100831 | 12 | 42 | 1.6 | 3.2 | 0.00 | 0.00 | 0.00 | 83 | 1002.9 |
| 20260506100329 | 12 | 10 | 0.0 | 0.0 | 0.00 | 0.00 | 0.00 | 84 | 1002.8 |
| 20260506100056 | 13 | 195 | 1.6 | 3.2 | 0.00 | 0.00 | 0.00 | 83 | 1001.1 |
| 20260506095827 | 12 | 55 | 0.0 | 3.2 | 0.00 | 0.00 | 0.00 | 82 | 1002.7 |
| 20260506095324 | 13 | 66 | 1.6 | 3.2 | 0.00 | 0.00 | 0.00 | 81 | 1002.6 |
| 20260506094821 | 13 | 54 | 3.2 | 3.2 | 0.00 | 0.00 | 0.00 | 81 | 1002.6 |
| 20260506094556 | 13 | 71 | 0.0 | 1.6 | 0.00 | 0.00 | 0.00 | 80 | 1001.1 |
| 20260506094319 | 13 | 47 | 3.2 | 3.2 | 0.00 | 0.00 | 0.00 | 80 | 1002.7 |
| 20260506093817 | 13 | 46 | 3.2 | 3.2 | 0.00 | 0.00 | 0.00 | 79 | 1002.9 |
| 20260506093314 | 13 | 62 | 3.2 | 3.2 | 0.00 | 0.00 | 0.00 | 80 | 1002.8 |
| 20260506093055 | 13 | 71 | 0.0 | 1.6 | 0.00 | 0.00 | 0.00 | 80 | 1001.1 |
| 20260506092812 | 13 | 56 | 3.2 | 3.2 | 0.00 | 0.00 | 0.00 | 80 | 1002.8 |
| 20260506092309 | 13 | 52 | 3.2 | 4.8 | 0.00 | 0.00 | 0.00 | 80 | 1002.6 |
| 20260506091806 | 12 | 49 | 3.2 | 3.2 | 0.00 | 0.00 | 0.00 | 80 | 1002.6 |
| 20260506091555 | 13 | 71 | 0.0 | 3.2 | 0.00 | 0.00 | 0.00 | 81 | 1001.1 |
| 20260506091304 | 13 | 34 | 0.0 | 1.6 | 0.00 | 0.00 | 0.00 | 81 | 1002.7 |
| 20260506090802 | 13 | 55 | 3.2 | 3.2 | 0.00 | 0.00 | 0.00 | 81 | 1002.6 |
| 20260506090258 | 13 | 48 | 3.2 | 3.2 | 0.00 | 0.00 | 0.00 | 81 | 1002.6 |
| 20260506090055 | 13 | 76 | 0.0 | 1.6 | 0.00 | 0.00 | 0.00 | 81 | 1001.0 |
| 20260506085755 | 13 | 55 | 3.2 | 4.8 | 0.00 | 0.00 | 0.00 | 81 | 1002.7 |
| 20260506085251 | 13 | 72 | 3.2 | 3.2 | 0.00 | 0.00 | 0.00 | 81 | 1002.8 |
| 20260506084748 | 13 | 71 | 3.2 | 4.8 | 0.00 | 0.00 | 0.00 | 80 | 1002.6 |
| 20260506084556 | 13 | 76 | 0.0 | 1.6 | 0.00 | 0.00 | 0.00 | 81 | 1001.1 |
| 20260506084244 | 12 | 74 | 3.2 | 4.8 | 0.00 | 0.00 | 0.00 | 80 | 1002.7 |
| 20260506083741 | 12 | 66 | 3.2 | 3.2 | 0.00 | 0.00 | 0.00 | 81 | 1002.9 |
| 20260506083239 | 12 | 54 | 3.2 | 4.8 | 0.00 | 0.00 | 0.00 | 81 | 1002.8 |
| 20260506082736 | 12 | 72 | 1.6 | 4.8 | 0.00 | 0.00 | 0.00 | 81 | 1003.0 |
| 20260506082232 | 12 | 48 | 3.2 | 4.8 | 0.00 | 0.00 | 0.00 | 81 | 1003.1 |
| 20260506081730 | 12 | 50 | 3.2 | 4.8 | 0.00 | 0.00 | 0.00 | 81 | 1003.0 |
| 20260506081556 | 12 | 153 | 0.0 | 1.6 | 0.00 | 0.00 | 0.00 | 81 | 1001.3 |
| 20260506081227 | 12 | 36 | 1.6 | 4.8 | 0.00 | 0.00 | 0.00 | 81 | 1003.0 |
| 20260506080725 | 12 | 59 | 3.2 | 3.2 | 0.00 | 0.00 | 0.00 | 82 | 1002.9 |
| 20260506080221 | 12 | 48 | 1.6 | 4.8 | 0.00 | 0.00 | 0.00 | 82 | 1002.7 |
| 20260506073205 | 12 | 48 | 3.2 | 4.8 | 0.00 | 0.00 | 0.00 | 80 | 1002.7 |
| 20260506073056 | 12 | 228 | 0.0 | 0.0 | 0.00 | 0.00 | 0.00 | 80 | 1001.2 |
| 20260506072702 | 12 | 40 | 0.0 | 3.2 | 0.00 | 0.00 | 0.00 | 80 | 1002.9 |
| 20260506072159 | 12 | 65 | 3.2 | 4.8 | 0.00 | 0.00 | 0.00 | 80 | 1002.8 |
| 20260506071657 | 12 | 45 | 0.0 | 3.2 | 0.00 | 0.00 | 0.00 | 80 | 1003.0 |
| 20260506071155 | 12 | 54 | 3.2 | 3.2 | 0.00 | 0.00 | 0.00 | 79 | 1003.1 |
| 20260506070651 | 12 | 40 | 0.0 | 4.8 | 0.00 | 0.00 | 0.00 | 79 | 1003.2 |
| 20260506070148 | 12 | 53 | 3.2 | 3.2 | 0.00 | 0.00 | 0.00 | 79 | 1003.4 |
| 20260506062125 | 12 | 50 | 1.6 | 3.2 | 0.00 | 0.00 | 0.00 | 79 | 1003.7 |
| 20260506061621 | 12 | 61 | 3.2 | 3.2 | 0.00 | 0.00 | 0.00 | 79 | 1003.9 |
| 20260506061555 | 13 | 228 | 0.0 | 0.0 | 0.00 | 0.00 | 0.00 | 79 | 1001.9 |
| 20260506061119 | 12 | 51 | 3.2 | 3.2 | 0.00 | 0.00 | 0.00 | 79 | 1003.7 |
| 20260506060617 | 12 | 55 | 3.2 | 3.2 | 0.00 | 0.00 | 0.00 | 79 | 1003.6 |
| 20260506060114 | 12 | 52 | 3.2 | 3.2 | 0.00 | 0.00 | 0.00 | 79 | 1003.7 |
| 20260506051046 | 13 | 34 | 1.6 | 1.6 | 0.00 | 0.00 | 0.00 | 76 | 1004.3 |
| 20260506050544 | 13 | 59 | 1.6 | 3.2 | 0.00 | 0.00 | 0.00 | 76 | 1004.4 |
| 20260506045034 | 13 | 63 | 3.2 | 3.2 | 0.00 | 0.00 | 0.00 | 76 | 1004.2 |
| 20260506044555 | 13 | 228 | 0.0 | 0.0 | 0.00 | 0.00 | 0.00 | 75 | 1002.4 |
| 20260506044532 | 13 | 86 | 3.2 | 4.8 | 0.00 | 0.00 | 0.00 | 75 | 1004.2 |
| 20260506044029 | 13 | 46 | 1.6 | 1.6 | 0.00 | 0.00 | 0.00 | 75 | 1004.0 |
| 20260506043526 | 13 | 67 | 0.0 | 3.2 | 0.00 | 0.00 | 0.00 | 73 | 1003.9 |
| 20260506043024 | 13 | 32 | 0.0 | 3.2 | 0.00 | 0.00 | 0.00 | 73 | 1004.1 |
| 20260506042523 | 13 | 56 | 4.8 | 4.8 | 0.00 | 0.00 | 0.00 | 73 | 1004.0 |
| 20260506042021 | 14 | 60 | 3.2 | 3.2 | 0.00 | 0.00 | 0.00 | 72 | 1004.0 |
| 20260506041519 | 13 | 61 | 3.2 | 3.2 | 0.00 | 0.00 | 0.00 | 72 | 1004.2 |
| 20260506041015 | 13 | 67 | 3.2 | 3.2 | 0.00 | 0.00 | 0.00 | 73 | 1004.1 |
| 20260506040514 | 13 | 50 | 1.6 | 3.2 | 0.00 | 0.00 | 0.00 | 73 | 1004.1 |
| 20260506040055 | 14 | 228 | 0.0 | 0.0 | 0.00 | 0.00 | 0.00 | 72 | 1002.4 |
| 20260506040009 | 13 | 48 | 3.2 | 3.2 | 0.00 | 0.00 | 0.00 | 73 | 1004.2 |
| 20260506035506 | 13 | 71 | 3.2 | 3.2 | 0.00 | 0.00 | 0.00 | 73 | 1004.2 |
| 20260506035003 | 13 | 51 | 3.2 | 3.2 | 0.00 | 0.00 | 0.00 | 73 | 1004.3 |
| 20260506034555 | 14 | 228 | 0.0 | 0.0 | 0.00 | 0.00 | 0.00 | 72 | 1002.5 |
| 20260506034500 | 13 | 71 | 1.6 | 3.2 | 0.00 | 0.00 | 0.00 | 73 | 1004.1 |
| 20260506033957 | 13 | 46 | 3.2 | 3.2 | 0.00 | 0.00 | 0.00 | 72 | 1004.2 |
| 20260506033455 | 13 | 38 | 3.2 | 3.2 | 0.00 | 0.00 | 0.00 | 72 | 1004.1 |
| 20260506033056 | 15 | 228 | 0.0 | 0.0 | 0.00 | 0.00 | 0.00 | 70 | 1002.4 |
| 20260506032951 | 14 | 56 | 3.2 | 4.8 | 0.00 | 0.00 | 0.00 | 71 | 1004.1 |
| 20260506032449 | 14 | 58 | 3.2 | 4.8 | 0.00 | 0.00 | 0.00 | 71 | 1004.2 |
| 20260506031945 | 14 | 53 | 3.2 | 3.2 | 0.00 | 0.00 | 0.00 | 71 | 1004.1 |
| 20260506031556 | 15 | 228 | 0.0 | 0.0 | 0.00 | 0.00 | 0.00 | 69 | 1002.3 |
| 20260506031442 | 14 | 58 | 3.2 | 4.8 | 0.00 | 0.00 | 0.00 | 70 | 1003.8 |
| 20260506030940 | 15 | 43 | 3.2 | 3.2 | 0.00 | 0.00 | 0.00 | 70 | 1004.2 |
| 20260506030438 | 15 | 45 | 1.6 | 4.8 | 0.00 | 0.00 | 0.00 | 69 | 1004.1 |
| 20260506030056 | 16 | 228 | 0.0 | 0.0 | 0.00 | 0.00 | 0.00 | 67 | 1002.3 |
| 20260506025934 | 15 | 64 | 3.2 | 4.8 | 0.00 | 0.00 | 0.00 | 69 | 1004.1 |
| 20260506025431 | 15 | 53 | 3.2 | 3.2 | 0.00 | 0.00 | 0.00 | 68 | 1004.0 |
| 20260506024928 | 15 | 52 | 1.6 | 4.8 | 0.00 | 0.00 | 0.00 | 67 | 1004.1 |
| 20260506024556 | 16 | 228 | 0.0 | 0.0 | 0.00 | 0.00 | 0.00 | 65 | 1002.3 |
| 20260506024425 | 15 | 41 | 3.2 | 3.2 | 0.00 | 0.00 | 0.00 | 66 | 1004.0 |
| 20260506023920 | 15 | 56 | 3.2 | 3.2 | 0.00 | 0.00 | 0.00 | 65 | 1004.1 |
| 20260506023418 | 15 | 77 | 0.0 | 3.2 | 0.00 | 0.00 | 0.00 | 65 | 1004.1 |
| 20260506023055 | 16 | 228 | 0.0 | 1.6 | 0.00 | 0.00 | 0.00 | 64 | 1002.3 |
| 20260506022914 | 16 | 46 | 1.6 | 3.2 | 0.00 | 0.00 | 0.00 | 65 | 1004.0 |
| 20260506022412 | 16 | 49 | 3.2 | 3.2 | 0.00 | 0.00 | 0.00 | 64 | 1004.1 |
| 20260506021910 | 16 | 45 | 3.2 | 4.8 | 0.00 | 0.00 | 0.00 | 64 | 1004.1 |
| 20260506021555 | 17 | 228 | 0.0 | 1.6 | 0.00 | 0.00 | 0.00 | 62 | 1002.3 |
| 20260506021407 | 16 | 57 | 1.6 | 3.2 | 0.00 | 0.00 | 0.00 | 64 | 1004.1 |
| 20260506020903 | 16 | 33 | 3.2 | 3.2 | 0.00 | 0.00 | 0.00 | 63 | 1003.9 |
| 20260506020402 | 16 | 48 | 3.2 | 3.2 | 0.00 | 0.00 | 0.00 | 62 | 1004.1 |
| 20260506015859 | 17 | 63 | 3.2 | 3.2 | 0.00 | 0.00 | 0.00 | 61 | 1003.9 |
| 20260506015356 | 17 | 55 | 3.2 | 3.2 | 0.00 | 0.00 | 0.00 | 61 | 1004.0 |
| 20260506014853 | 17 | 58 | 3.2 | 3.2 | 0.00 | 0.00 | 0.00 | 60 | 1003.9 |
| 20260506014556 | 18 | 228 | 0.0 | 0.0 | 0.00 | 0.00 | 0.00 | 57 | 1002.3 |
| 20260506014350 | 17 | 45 | 3.2 | 3.2 | 0.00 | 0.00 | 0.00 | 59 | 1003.9 |
| 20260506013846 | 17 | 60 | 1.6 | 3.2 | 0.00 | 0.00 | 0.00 | 58 | 1003.9 |
| 20260506013344 | 17 | 49 | 3.2 | 3.2 | 0.00 | 0.00 | 0.00 | 57 | 1003.8 |
| 20260506013056 | 18 | 228 | 0.0 | 0.0 | 0.00 | 0.00 | 0.00 | 55 | 1002.2 |
| 20260506012840 | 18 | 37 | 3.2 | 3.2 | 0.00 | 0.00 | 0.00 | 56 | 1003.9 |
| 20260506012337 | 18 | 53 | 3.2 | 3.2 | 0.00 | 0.00 | 0.00 | 55 | 1004.0 |
| 20260506011834 | 18 | 63 | 1.6 | 3.2 | 0.00 | 0.00 | 0.00 | 53 | 1003.7 |
| 20260506011555 | 19 | 228 | 0.0 | 0.0 | 0.00 | 0.00 | 0.00 | 51 | 1002.1 |
| 20260506011331 | 18 | 44 | 3.2 | 3.2 | 0.00 | 0.00 | 0.00 | 53 | 1003.7 |